Starlink 30369

operational
NORAD ID: 57781 Int'l Des: 2023-134 Owner: SPXS Country: US Constellation: starlink
LEOCIRCULAR

About Starlink 30369

Description loading...

Live Position

Loading 3D Globe...

Upcoming Passes

Altitude History

Altitude vs Time

uPlot chart will show altitude changes over time

Two-Line Element Set

1 57781U 23134L 26046.83998641 .00028704 00000-0 21170-2 0 9991
2 57781 43.0096 316.2947 0003251 17.1940 342.9012 15.02787545136181
Epoch: Feb 15, 2026 • Age: 12 hours

Current Status

Altitude 561.1 km
Velocity 7.58 km/s
Sub-Earth Point -5.54°S, 129.2°W
Launch Date Sep 4, 2023
Age 2.4 years
Type internet

Technical Details

Classification Payload
Mass 730.00 kg
Dry Mass 700.00 kg
Total Mass 730.00 kg
Length 0.30 m
Diameter 4.10 m
Span 29.00 m
Shape Box + pan
Manufacturer SPXS
Bus Type Starlink V2M
Phase Status In Orbit
Owner/State SPXS/US

Large Constellations

Loading constellations...